ランキン彗星

C/2020 K6 ( Rankin )

English version
Home page
Updated on May 29, 2022

---------------------------------------------------------------------

・ プロフィール

発見日 2020年5月26日
発見光度 20.5等
発見者 David Rankin (Mount Lemmon Survey)

・ 写真集

・ 軌道要素

Epoch 2022 Jan. 21.0 TT = JDT 2459600.5                                         
T 2021 Sept. 15.57900 TT                                Rudenko                 
q   5.8684121            (2000.0)            P               Q                  
z  -0.0005424      Peri.   44.30840     +0.10930839     -0.41337684             
 +/-0.0000031      Node   291.52900     -0.93623168     +0.26271649             
e   1.0031828      Incl.  103.64548     +0.33394898     +0.87183693             
From 117 observations 2020 May 26-2022 Apr. 18, mean residual 0".5.             

・ 光度変化

        m1 = 7.5 + 5 logΔ + 10.0 log r

---------------------------------------------------------------------

軌道要素はM.P.E.C. 2022-H30に掲載されたものです。
光度グラフはComet for Windowsで作成したものです。

---------------------------------------------------------------------

Copyright(C) Seiichi Yoshida (comet@aerith.net). All rights reserved.